This demonstration page uses our WeatherBlox Daily Observations layout. Learn more.

Left ArrowRight Arrow

Hourly Observations for July 18, 2015

Temp ( °F °C ) Dew Point ( °F °C ) Humidity (%) Winds ( mph kmh ) Pressure ( in mb ) Visibility ( mi km ) Precip ( " mm )
12:52 am 00:52 Clear 78 25.6 72 22.2 82 82 S 12 19 29.88 1012 10 16 0.00 0.00
1:52 am 01:52 Clear 78 25.6 71 21.7 79 79 S 10 17 29.87 1012 10 16 0.00 0.00
2:52 am 02:52 Clear 76 24.4 71 21.7 85 85 S 8 13 29.88 1012 10 16 0.00 0.00
3:52 am 03:52 Clear 76 24.4 71 21.7 85 85 S 9 15 29.88 1012 10 16 0.00 0.00
4:52 am 04:52 Clear 76 24.4 71 21.7 85 85 S 7 11 29.90 1012 10 16 0.00 0.00
5:52 am 05:52 Clear 75 23.9 71 21.7 88 88 S 7 11 29.91 1013 10 16 0.00 0.00
6:52 am 06:52 Sunny 76 24.4 71 21.7 85 85 S 6 9 29.91 1013 10 16 0.00 0.00
7:52 am 07:52 Sunny 77 25 71 21.7 82 82 S 8 13 29.92 1013 10 16 0.00 0.00
8:52 am 08:52 Sunny 82 27.8 72 22.2 72 72 SSW 12 19 29.92 1013 10 16 0.00 0.00
9:52 am 09:52 Sunny 85 29.4 71 21.7 63 63 SW 13 20 29.93 1014 10 16 0.00 0.00
10:52 am 10:52 Sunny 87 30.6 72 22.2 61 61 WSW 14 22 29.94 1014 10 16 0.00 0.00
11:52 am 11:52 Sunny 89 31.7 71 21.7 55 55 WSW 13 20 29.96 1014 10 16 0.00 0.00
12:52 pm 12:52 Sunny 91 32.8 73 22.8 56 56 SSW 14 22 29.95 1014 10 16 0.00 0.00
1:52 pm 13:52 Sunny 92 33.3 74 23.3 56 56 SSW 13 20 29.93 1014 10 16 0.00 0.00
2:52 pm 14:52 Mostly Sunny 93 33.9 74 23.3 54 54 SSW 15 24 29.92 1013 10 16 0.00 0.00
3:52 pm 15:52 Sunny 93 33.9 73 22.8 52 52 SSW 15 24 29.92 1013 10 16 0.00 0.00
4:52 pm 16:52 Mostly Sunny 90 32.2 74 23.3 59 59 S 15 24 29.92 1013 10 16 0.00 0.00
5:52 pm 17:52 Sunny 91 32.8 73 22.8 56 56 S 14 22 29.90 1012 10 16 0.00 0.00
6:52 pm 18:52 Sunny 89 31.7 72 22.2 57 57 SSW 15 24 29.88 1012 10 16 0.00 0.00
7:52 pm 19:52 Sunny 86 30 73 22.8 65 65 S 9 15 29.88 1012 10 16 0.00 0.00
8:52 pm 20:52 Clear 82 27.8 74 23.3 77 77 S 9 15 29.88 1012 10 16 0.00 0.00
9:52 pm 21:52 Clear 80 26.7 74 23.3 82 82 SSW 7 11 29.91 1013 10 16 0.00 0.00
10:52 pm 22:52 Clear 79 26.1 74 23.3 85 85 S 9 15 29.91 1013 10 16 0.00 0.00
11:52 pm 23:52 Clear 79 26.1 73 22.8 82 82 S 5 7 29.92 1013 10 16 0.00 0.00

Powered by AerisWeather